Theta_e
328 329 330 332 333 332 331 329 327 329 330 331 332 331 331 330 328 326 325 326 327 328 328 329 329 328 328 326 326 328 328 326 325 325 324 323 323 323 322 322 320 320 320 315 313 315 322 332 334 334 334 332 331 331 332 332 331 331 330 329 325 317
328 328 329 330 332 332 330 328 328 330 330 331 332 331 331 329 327 328 327 327 327 328 329 328 328 328 326 325 325 326 325 324 323 322 322 321 321 321 320 321 320 319 320 317 314 313 323 333 333 333 333 331 331 332 332 331 331 331 330 328 323 317
329 328 328 329 331 332 329 328 329 330 331 332 332 331 330 327 328 330 329 327 328 327 328 328 327 327 326 325 325 325 324 323 323 321 320 320 319 319 318 319 320 319 319 319 315 315 325 333 333 333 333 331 332 331 331 331 331 331 330 327 323 321
329 328 329 330 331 333 330 329 329 330 331 332 331 331 329 327 329 329 327 327 327 327 327 328 329 328 327 327 325 324 323 322 322 321 320 320 319 319 318 318 319 318 319 320 319 320 328 334 332 332 333 332 331 330 330 331 331 330 330 327 326 324
330 330 331 331 331 332 330 329 329 331 332 332 331 329 326 326 329 328 327 328 328 327 328 329 330 329 329 328 326 324 323 321 320 320 320 319 319 318 318 319 318 319 322 324 323 324 329 333 330 330 332 331 329 328 330 330 330 329 329 328 327 325
331 333 332 330 330 330 330 329 329 331 332 331 330 328 325 327 329 328 329 329 329 328 327 329 329 329 329 328 327 325 325 322 320 321 321 320 319 319 320 320 321 324 327 328 327 325 328 330 328 330 333 331 328 328 329 329 329 330 330 329 327 324
333 333 329 328 330 329 329 329 330 331 331 330 328 326 326 328 329 329 330 329 328 328 327 327 328 328 328 327 326 326 326 325 323 324 325 323 321 322 325 325 326 329 330 330 329 326 325 325 326 329 333 331 329 329 329 330 330 330 330 329 326 323
332 330 327 327 330 329 328 329 330 331 331 329 327 326 328 329 330 331 331 330 329 329 328 328 328 328 327 326 327 326 326 327 326 326 328 327 325 326 328 328 329 330 330 330 329 327 325 324 326 329 331 331 330 331 331 331 331 331 330 328 325 322
331 329 328 328 328 328 329 331 331 330 329 327 325 327 329 330 331 331 330 329 329 328 329 329 329 328 326 327 327 325 325 326 326 327 327 327 328 328 328 329 330 330 330 330 329 329 327 326 327 329 330 330 330 332 331 331 331 331 330 328 325 322
331 329 328 328 329 329 330 331 330 330 328 325 325 327 329 330 330 330 330 329 329 329 329 329 328 327 326 327 327 325 325 326 326 326 325 326 329 329 329 330 330 330 330 329 329 330 329 329 329 330 331 331 331 332 332 331 331 331 329 327 325 323
333 331 329 330 331 330 331 330 330 329 327 325 327 328 328 329 329 329 329 329 329 329 328 328 328 327 326 327 328 326 326 327 327 326 326 327 328 329 329 330 331 330 329 329 329 328 329 330 330 331 332 331 331 331 331 331 331 330 329 327 326 325
334 332 330 332 333 332 332 330 329 328 326 326 327 326 326 327 328 328 328 328 329 328 326 326 328 328 327 327 327 326 327 327 327 326 326 327 328 329 329 329 330 330 329 329 328 328 328 329 329 330 331 331 331 331 330 330 330 330 330 328 327 325
335 333 332 333 334 332 332 330 327 327 327 326 326 325 324 325 326 326 326 328 329 327 325 326 327 328 329 328 326 326 327 326 326 327 326 328 328 328 329 329 329 329 329 328 328 328 327 327 328 329 330 331 331 331 330 330 330 330 329 328 327 326
336 335 334 334 334 332 330 329 326 327 327 325 325 325 324 324 324 325 326 327 329 327 325 325 326 326 329 329 326 327 327 326 326 326 327 328 327 327 327 327 328 329 328 328 327 326 326 327 329 329 330 330 330 330 329 330 331 329 327 328 328 327
336 336 335 334 333 330 328 327 326 327 328 325 325 325 324 324 324 325 327 328 328 326 324 324 325 326 328 328 327 327 327 327 326 326 327 327 327 327 328 327 328 328 327 327 326 326 327 328 329 329 329 329 329 329 329 330 329 326 325 327 328 326
336 335 334 333 331 329 328 327 326 327 326 324 325 326 327 327 327 327 328 328 328 325 324 324 325 326 327 327 327 326 326 327 327 327 326 326 327 328 328 327 327 328 327 326 326 327 328 329 329 329 329 328 328 329 329 329 326 324 325 326 326 325
335 333 332 331 330 329 328 327 326 325 324 325 327 329 328 327 327 326 326 326 327 326 325 325 326 327 327 327 327 327 327 327 327 327 326 325 327 328 328 328 327 327 327 326 326 328 328 329 329 329 328 328 328 329 330 328 325 325 325 324 325 325
333 331 330 330 330 329 329 328 327 326 327 328 329 328 327 325 325 325 325 326 326 326 325 326 327 328 327 327 327 328 327 327 328 327 327 327 327 327 328 329 328 327 327 327 327 327 328 329 329 329 328 328 329 329 329 328 326 326 326 325 325 326
330 329 329 329 328 328 327 328 328 328 328 327 326 326 326 325 326 325 324 326 326 327 327 327 328 328 327 326 327 328 328 328 329 328 328 328 327 327 327 328 328 327 326 327 326 327 328 329 329 328 328 328 328 329 329 328 327 327 326 326 326 326
329 328 328 328 327 326 326 327 327 326 325 326 326 327 327 327 327 326 326 328 329 329 328 328 327 327 327 328 328 328 328 328 329 329 329 328 327 327 326 327 328 327 326 326 326 327 328 328 328 328 329 329 329 329 329 328 327 326 326 325 326 326
329 328 328 327 326 326 326 326 325 325 325 326 328 328 327 328 328 328 329 330 330 329 327 327 326 327 327 328 328 328 328 328 329 329 328 327 327 326 325 327 329 327 326 326 326 327 328 328 328 328 329 329 329 328 328 328 327 325 324 323 324 325
328 328 327 326 324 324 324 325 325 326 326 328 328 327 326 327 328 328 329 329 329 327 325 325 326 327 327 326 326 327 327 327 328 328 327 327 327 325 325 328 329 328 327 327 328 328 328 328 328 328 328 328 329 328 328 328 326 325 323 322 322 323
326 326 324 323 322 323 324 325 325 326 327 327 328 327 325 326 328 327 327 328 327 326 326 325 325 327 326 325 326 327 326 327 327 327 327 326 325 325 327 328 328 329 328 327 329 328 328 328 328 328 327 328 328 328 328 327 326 325 324 323 323 323
325 324 323 323 323 324 325 326 327 327 328 328 326 326 325 326 327 326 326 327 327 327 326 326 326 326 326 325 327 327 326 327 327 326 325 324 323 324 327 328 327 328 327 326 328 328 328 329 328 328 327 328 328 328 327 327 326 326 325 324 323 323
324 324 324 325 325 325 325 326 328 329 329 327 325 324 325 325 327 327 327 327 327 327 327 326 326 326 326 326 327 327 326 327 325 324 324 323 324 324 326 327 326 327 326 326 327 327 328 329 328 328 327 327 327 327 327 326 325 324 324 324 323 323
324 325 325 326 326 325 326 325 326 328 328 326 325 324 322 322 323 324 326 327 326 326 326 326 326 326 326 325 326 326 325 325 324 324 324 324 325 325 325 326 326 326 326 326 326 326 327 328 328 327 327 326 326 326 326 325 324 322 323 323 323 323
324 325 326 326 325 326 326 325 325 327 327 324 323 323 322 322 321 319 320 322 323 323 323 322 323 325 327 326 326 326 326 325 325 325 325 325 325 325 324 325 325 326 326 326 327 327 327 327 327 327 327 327 325 325 325 324 323 322 322 322 322 323
324 327 327 326 326 326 325 326 327 326 325 323 319 321 323 322 320 317 315 318 319 319 319 318 317 319 323 326 326 325 324 324 324 325 325 324 324 325 325 325 326 326 327 327 327 328 328 327 327 327 327 327 325 324 324 324 323 322 322 321 322 323
326 328 326 325 326 325 325 325 326 323 322 320 316 319 322 322 321 317 315 318 320 318 317 317 316 315 316 320 324 324 323 322 323 324 325 325 324 324 324 324 326 326 326 326 327 328 328 327 326 326 325 326 325 324 324 323 323 322 321 322 322 321
326 327 326 326 325 323 323 322 320 317 316 316 315 319 323 323 321 316 315 321 322 321 319 318 319 318 316 317 317 319 321 322 323 324 325 325 324 324 323 324 325 326 326 326 326 327 327 326 326 325 325 325 324 323 324 323 322 322 321 321 321 320
325 326 325 324 322 321 322 319 316 316 316 314 314 316 319 320 317 312 314 319 322 323 321 320 322 322 321 320 317 316 318 320 322 323 323 323 323 324 324 325 326 326 326 325 326 326 326 326 326 325 325 325 324 322 324 323 322 322 321 321 321 318
323 324 322 321 322 324 324 320 318 319 317 314 312 312 312 312 310 310 313 315 318 321 320 321 324 324 324 322 319 319 320 321 322 322 322 322 322 323 324 324 325 325 326 325 324 324 325 325 325 325 325 325 324 322 324 324 322 322 321 321 320 316
323 322 319 321 324 325 325 323 321 321 317 313 311 309 307 308 308 310 312 314 315 317 317 320 323 324 324 321 317 320 322 323 324 323 323 323 322 321 322 323 324 324 324 324 322 322 323 324 325 325 324 324 323 323 324 324 323 322 320 318 316 313
323 322 319 319 323 323 324 324 323 321 317 312 310 309 308 309 310 311 312 314 315 317 318 319 320 319 320 320 317 319 321 321 323 324 324 323 321 321 322 323 324 324 322 322 321 321 323 324 324 324 324 323 323 324 324 324 323 321 319 314 311 311
323 323 320 320 323 323 324 325 322 319 315 312 311 311 312 313 313 313 314 316 319 320 319 320 320 317 317 320 320 320 320 319 320 322 322 320 319 321 322 322 322 321 319 319 320 322 323 324 324 324 324 322 322 322 322 323 322 322 320 314 311 310
323 323 323 323 325 325 325 324 320 316 313 313 313 313 315 316 314 314 316 318 320 321 320 320 321 319 317 319 320 319 318 318 320 320 320 320 320 322 321 319 319 319 319 320 321 323 323 322 322 322 321 318 316 317 318 321 322 322 321 316 312 311
322 323 325 327 327 326 325 322 317 315 315 315 314 315 316 315 314 314 318 320 320 321 321 321 321 320 318 317 319 318 316 318 320 320 320 321 322 322 321 320 320 320 321 322 323 323 322 321 321 321 319 316 314 315 317 319 321 321 321 317 312 311
Wind_Speed
24 23 23 22 21 20 19 18 17 18 17 16 16 15 14 13 13 13 13 14 13 13 14 13 13 12 11 11 10 10 9 8 7 5 5 4 4 4 4 5 6 6 7 8 13 19 20 20 20 15 11 10 7 4 4 5 4 4 6 8 10 11
24 23 24 23 22 21 19 19 19 18 18 16 16 15 14 13 14 14 14 14 14 14 14 13 12 11 11 10 10 9 8 7 6 5 5 4 4 4 4 4 5 6 8 9 12 18 21 21 20 14 10 10 7 5 4 5 5 4 5 7 8 9
24 23 24 24 23 22 21 20 20 19 18 17 16 15 15 14 14 14 14 14 14 13 13 12 10 10 9 10 10 9 8 7 6 6 5 5 4 4 4 4 5 6 8 11 14 19 22 22 19 12 9 9 8 6 4 5 4 3 3 5 6 9
24 24 25 25 23 21 21 21 21 20 18 18 17 15 15 15 15 13 13 12 12 12 11 10 10 9 9 9 10 9 7 6 7 7 6 5 4 5 5 5 6 7 9 12 16 20 23 22 18 11 9 9 8 5 3 3 1 2 2 3 5 7
24 24 24 23 22 20 21 22 22 21 19 18 17 16 15 15 14 13 12 11 10 10 9 9 9 9 8 8 8 7 6 6 7 7 6 5 4 6 7 7 8 10 13 14 16 19 21 21 17 11 9 9 7 5 2 1 1 2 3 4 4 5
24 24 24 23 23 21 22 22 22 21 19 18 17 17 16 15 13 13 12 10 9 9 9 9 9 7 7 7 7 6 6 7 8 8 7 6 6 8 10 11 14 16 17 16 16 18 19 19 15 10 10 9 7 6 4 3 2 3 3 3 4 4
24 24 25 25 24 23 22 22 21 20 19 17 16 16 16 15 13 12 11 10 10 9 8 8 8 7 6 5 5 6 6 7 9 9 8 7 9 11 13 15 17 17 16 16 16 18 18 18 15 11 10 9 8 7 6 4 3 3 2 3 4 4
24 25 26 26 26 23 22 21 20 20 19 17 16 16 16 15 13 11 11 11 10 7 7 7 6 5 4 5 5 6 7 7 9 9 9 8 9 12 15 15 16 15 14 14 15 16 17 17 15 12 10 9 9 8 6 5 4 3 2 2 2 3
25 25 25 25 25 22 20 19 19 19 18 18 17 17 16 14 12 11 11 11 9 7 6 6 4 4 4 5 6 6 7 7 8 9 10 9 10 11 13 14 15 14 14 13 13 14 15 16 15 12 10 9 8 8 7 6 4 3 2 2 1 2
25 24 24 24 22 21 20 20 19 19 19 18 19 18 16 14 12 11 11 10 8 7 6 5 4 3 4 5 5 5 5 7 8 9 9 9 9 10 12 14 14 13 13 13 13 13 14 13 12 11 10 8 8 8 7 6 4 3 2 1 1 2
27 26 25 23 19 20 20 21 21 20 20 19 20 18 15 15 13 11 10 9 8 7 6 4 4 4 5 6 5 4 4 5 7 9 9 9 9 10 11 13 13 12 11 12 13 13 12 9 10 12 10 7 8 9 8 7 5 3 2 2 2 3
28 27 26 21 17 20 20 20 21 20 20 20 20 18 15 14 12 10 8 8 7 6 5 5 4 5 6 6 5 4 4 5 7 8 8 8 8 9 10 11 12 10 10 12 13 12 9 8 10 11 10 7 7 8 8 7 7 5 4 2 1 2
25 25 24 20 18 21 20 20 21 19 19 19 18 17 16 14 11 8 7 7 7 5 5 5 5 5 6 5 4 4 4 5 7 7 7 8 8 8 9 10 11 10 10 11 11 10 9 10 11 11 10 7 7 7 7 7 8 7 4 3 2 4
21 20 19 19 21 22 20 21 21 20 20 18 16 15 15 15 12 8 8 8 7 6 5 4 5 6 6 5 5 5 4 4 5 7 8 8 8 7 8 9 10 10 9 9 9 8 9 11 11 9 8 7 7 7 7 8 8 5 3 2 4 5
17 17 16 18 22 22 20 20 20 20 21 18 16 15 14 14 12 9 8 7 7 6 5 4 5 6 6 5 6 6 5 4 5 6 8 9 8 7 7 8 10 11 10 9 8 8 10 10 8 7 7 7 8 7 8 8 5 3 2 4 5 4
15 15 17 20 22 21 20 20 20 20 20 18 16 15 13 11 10 9 8 8 7 6 5 5 6 6 6 6 7 7 5 5 5 6 8 9 9 8 6 7 9 11 11 10 9 10 11 9 7 7 7 7 7 7 9 8 4 2 4 7 6 4
17 18 20 22 23 21 21 20 20 19 17 15 15 14 12 10 9 9 8 8 8 7 6 6 7 7 7 7 7 8 7 6 6 6 7 7 7 7 6 6 7 10 10 10 11 12 11 10 8 8 8 8 8 8 8 7 5 3 6 7 6 5
21 21 22 23 23 22 21 19 18 17 15 14 14 13 11 9 9 8 9 9 8 8 8 8 8 7 7 7 8 8 8 7 6 6 6 6 7 7 6 6 6 8 8 9 10 11 11 11 10 10 10 10 9 8 6 6 6 5 7 6 5 4
24 23 24 24 22 21 21 19 18 16 16 15 13 12 10 9 9 8 9 9 8 8 8 8 7 7 7 7 8 8 9 7 5 6 6 7 8 8 8 7 6 7 9 8 8 9 11 12 12 12 12 11 10 8 5 5 6 6 6 6 6 4
25 24 25 25 23 22 22 20 19 18 17 16 14 13 11 11 10 9 9 8 7 7 7 8 8 7 7 6 7 8 8 7 5 5 7 8 8 8 9 8 8 9 9 10 9 9 11 12 13 13 13 12 12 9 5 5 5 7 7 7 6 5
26 25 26 25 23 23 23 21 19 19 18 17 16 14 12 11 10 9 9 7 7 7 6 7 7 8 8 7 6 7 9 8 6 6 8 9 9 10 9 8 9 10 9 11 12 11 12 12 13 14 14 13 11 9 8 6 7 10 9 8 7 6
27 25 23 22 22 22 21 20 20 20 19 18 15 12 11 10 9 9 8 7 7 7 6 6 7 7 8 7 7 8 9 8 7 7 10 11 11 11 11 9 10 11 10 11 12 12 13 12 12 12 13 12 11 10 9 9 9 10 11 10 9 7
26 24 22 21 22 22 21 21 21 21 19 17 13 10 9 9 9 9 8 8 7 7 7 7 7 8 8 8 8 8 8 7 7 9 11 12 12 13 12 10 11 11 11 11 11 11 11 11 11 12 12 12 12 11 11 11 9 9 9 10 8 7
25 24 23 23 24 24 24 23 21 20 18 16 13 11 10 10 9 9 9 9 8 8 8 8 7 8 8 8 9 9 7 7 9 10 11 11 11 13 13 12 12 11 10 11 11 10 10 11 11 12 13 12 12 12 11 10 10 9 8 8 7 6
24 24 25 26 27 26 26 24 23 22 20 17 15 14 13 12 10 10 10 10 8 8 8 8 8 8 8 8 9 9 7 8 10 10 10 10 11 13 14 13 12 12 11 11 10 10 12 13 12 12 12 11 11 10 10 12 13 11 8 8 8 5
24 25 27 28 28 27 25 25 25 25 23 19 17 15 13 12 12 10 11 11 10 9 8 9 9 9 8 8 9 8 8 9 9 9 9 10 11 12 13 13 12 12 11 11 10 10 13 15 14 13 12 11 9 7 12 17 15 13 10 8 9 7
25 26 27 27 26 24 23 23 23 22 19 17 16 14 11 11 11 10 10 11 10 10 8 8 9 9 9 9 9 9 9 9 8 7 8 9 10 11 12 11 11 12 10 11 11 11 13 14 15 14 13 12 8 6 13 18 16 17 16 11 9 9
27 27 26 26 24 21 20 20 19 18 15 14 13 13 11 10 9 8 9 10 10 10 9 8 8 9 10 10 10 10 10 9 8 7 8 9 9 10 11 11 11 11 10 10 11 11 12 13 15 14 14 13 8 6 15 18 15 17 19 18 15 12
27 27 27 27 24 20 19 18 17 17 16 14 12 11 10 9 7 6 7 8 9 9 9 9 8 8 9 10 11 11 11 11 10 9 9 9 9 10 10 11 11 10 9 10 11 12 12 12 13 14 14 14 10 10 17 16 13 15 18 21 20 16
25 25 26 25 23 21 20 18 17 17 17 16 13 12 11 9 7 5 5 7 6 6 7 8 8 7 6 7 9 11 11 10 10 10 10 8 9 9 10 10 10 9 8 9 11 13 12 10 12 14 14 15 12 14 19 17 15 17 17 19 20 18
25 23 23 24 22 21 20 17 15 15 14 14 13 12 11 10 8 7 6 6 5 4 4 6 7 6 5 4 5 8 9 9 9 10 9 8 7 8 9 9 10 9 9 9 10 12 12 10 11 14 15 15 12 13 18 19 17 18 17 17 18 18
24 23 23 24 23 21 19 16 14 13 12 11 11 10 10 10 10 8 7 6 4 4 3 5 7 6 5 4 5 7 8 8 9 10 8 7 6 7 9 9 9 9 9 9 9 10 11 10 10 12 14 13 11 12 16 19 18 17 15 14 16 19
24 24 24 24 22 20 18 15 13 12 11 10 11 11 11 11 10 9 7 6 5 5 4 5 6 7 6 4 5 8 8 8 9 10 9 6 4 6 8 9 7 7 9 9 9 9 9 9 9 9 11 11 11 12 15 17 17 15 12 12 16 20
24 24 24 22 20 18 16 14 13 11 11 12 12 12 12 11 10 9 8 7 6 5 3 3 4 7 8 7 6 7 7 7 9 10 9 7 5 6 8 8 8 9 9 9 8 10 10 10 11 11 11 11 12 14 15 16 17 16 13 13 17 20
24 23 23 22 19 18 16 15 14 12 12 12 12 13 12 10 9 9 8 7 6 4 2 2 1 3 7 9 7 6 5 5 7 9 9 8 8 9 10 9 10 10 10 10 10 12 13 13 14 14 14 13 13 14 15 16 18 18 15 15 16 17
24 23 23 22 20 18 17 16 15 14 14 13 12 12 11 9 8 9 7 6 5 3 1 0 2 1 5 8 7 6 5 5 7 8 8 9 10 10 9 10 11 11 12 13 13 15 16 16 16 15 15 14 12 12 13 16 20 19 17 16 15 15
25 24 24 22 20 18 17 16 16 15 14 13 12 11 10 8 9 9 8 7 6 3 2 2 2 2 3 5 6 4 5 8 10 9 9 10 9 8 8 9 11 13 16 16 16 16 16 16 16 14 15 13 9 9 10 14 19 19 18 17 15 18
Wind_Direction
172 172 172 168 167 169 171 169 166 165 161 161 162 162 160 157 156 152 152 151 147 145 143 141 139 136 131 131 131 130 130 128 131 131 126 122 128 128 127 124 124 137 140 141 150 157 158 154 150 142 159 181 175 156 122 107 86 51 21 15 23 31
174 173 172 170 169 170 172 169 167 167 164 166 166 165 164 162 157 150 149 147 143 143 142 140 136 133 131 131 132 131 127 126 134 142 150 146 146 145 134 130 130 140 144 139 145 156 157 154 148 139 159 175 167 161 124 98 83 55 22 20 29 36
177 175 174 173 173 172 172 169 168 169 168 169 168 169 169 164 157 152 149 143 141 140 138 136 133 133 130 131 131 126 123 127 140 146 157 159 151 145 136 133 135 145 144 138 143 154 156 152 143 131 149 162 158 162 121 87 75 45 27 26 22 25
180 179 178 177 177 173 170 169 171 173 173 172 169 171 172 165 158 153 147 142 141 138 134 133 134 136 131 131 125 118 121 132 143 147 157 164 156 144 138 139 139 144 139 136 143 153 156 150 140 128 139 152 159 166 122 87 62 1 358 5 360 8
183 183 182 179 178 175 171 173 175 176 175 174 171 171 174 167 158 150 145 143 141 136 136 139 138 137 130 124 115 111 125 137 145 148 150 154 150 142 143 144 137 135 131 130 141 152 156 153 149 143 143 154 171 185 173 171 259 316 325 337 353 9
187 185 185 182 182 179 176 178 178 176 176 177 174 172 172 165 157 151 148 145 145 147 148 147 139 132 125 118 112 116 130 140 143 141 140 139 137 142 145 142 136 135 133 133 142 152 160 163 165 158 148 162 184 193 202 220 260 304 325 353 12 20
190 190 188 186 187 184 182 184 183 179 176 176 174 172 168 162 160 156 153 152 156 159 150 142 135 127 124 121 120 127 138 143 139 136 138 136 136 142 143 140 139 141 142 145 148 153 162 168 170 163 156 172 187 190 198 222 260 284 310 2 14 21
195 198 192 188 191 188 187 189 189 183 174 173 173 170 167 162 163 160 156 158 161 160 147 142 139 129 133 142 139 138 145 147 143 144 148 146 145 148 146 144 145 149 152 156 155 155 160 166 169 168 170 181 195 201 204 222 243 253 286 341 7 26
200 201 194 192 194 190 189 187 186 181 171 172 170 167 169 164 163 164 160 158 161 162 151 149 149 140 155 161 154 147 146 152 158 158 154 152 154 157 155 153 154 159 163 164 165 163 165 169 172 176 180 187 205 217 218 221 231 246 277 309 7 37
204 202 196 197 196 190 190 186 181 177 171 171 168 169 171 164 166 168 161 158 163 163 150 151 163 170 175 169 166 156 145 153 164 166 159 153 156 161 162 162 163 169 172 171 174 177 176 176 183 192 189 194 214 221 221 218 223 238 242 190 100 62
206 204 198 200 198 190 189 184 178 177 174 170 167 167 164 165 173 170 162 161 160 153 148 159 173 177 177 175 177 165 149 156 164 168 164 157 158 163 168 171 174 178 181 178 180 186 185 180 189 196 187 196 216 217 219 217 221 220 187 145 114 81
206 202 197 196 192 185 184 176 172 175 174 171 170 169 168 170 172 167 167 169 161 153 152 161 164 168 174 176 176 163 158 168 172 174 173 170 166 165 173 181 183 187 190 186 186 192 197 187 183 185 180 194 215 215 218 216 215 202 181 176 149 106
207 206 200 192 183 178 177 172 169 170 169 169 170 172 176 179 174 167 176 178 171 168 164 159 154 168 180 178 177 171 165 169 175 181 183 179 175 173 178 189 194 194 193 192 191 195 201 186 173 174 178 195 220 217 210 203 197 189 196 223 176 125
207 209 200 183 173 169 169 170 169 166 163 163 166 168 174 181 184 182 184 182 175 172 172 163 160 173 183 184 192 185 176 181 181 182 187 184 182 187 191 196 198 199 195 192 193 193 190 178 168 171 173 190 214 207 197 195 190 197 228 200 138 122
205 208 195 174 168 167 167 169 169 168 167 167 169 171 173 179 186 190 188 183 176 174 176 180 180 180 179 188 202 196 186 199 195 184 189 192 188 187 194 196 198 207 206 193 190 181 174 171 164 161 161 183 197 191 191 185 179 215 203 121 120 123
192 190 182 170 166 167 167 167 170 172 172 173 175 176 176 175 180 188 188 183 182 182 183 192 197 190 185 195 209 209 202 203 204 192 189 194 191 181 184 196 198 204 203 191 182 172 164 156 146 149 155 171 171 170 179 159 134 177 135 117 116 123
170 163 165 164 163 165 165 167 171 172 171 173 175 178 178 175 178 187 190 188 190 194 199 205 210 208 201 202 212 216 211 201 202 200 190 190 193 183 181 190 185 183 188 188 178 168 160 148 148 160 159 162 157 158 166 138 121 129 115 118 120 122
160 157 160 161 160 163 166 168 169 168 167 167 168 171 171 171 180 190 192 195 201 206 208 212 216 215 206 207 216 216 212 204 198 198 193 192 195 190 183 176 172 168 170 182 179 169 162 155 158 163 159 164 162 156 154 126 122 117 109 118 118 124
155 155 159 160 159 163 166 165 161 160 162 161 159 159 162 168 177 181 184 189 198 202 200 202 207 204 197 205 213 209 207 204 196 194 197 199 197 194 186 174 178 182 168 170 179 172 168 164 161 160 160 162 154 149 152 134 123 109 104 110 107 108
153 153 156 158 160 161 162 159 159 161 162 158 153 153 156 162 166 168 171 173 180 187 188 190 193 189 185 193 200 197 197 200 201 201 204 206 199 192 189 180 183 192 178 170 173 172 171 168 161 157 158 157 150 148 149 138 122 104 99 97 95 93
155 156 156 158 159 159 159 160 163 163 158 153 150 150 148 150 155 156 157 161 171 181 185 185 185 182 179 182 191 187 184 192 205 208 202 199 195 188 187 183 182 188 183 176 173 169 170 170 165 160 159 156 151 148 144 134 117 103 94 87 87 90
158 159 158 158 159 159 161 161 159 156 152 148 145 141 138 138 142 143 148 156 164 173 171 164 166 170 172 174 182 183 181 188 199 200 194 189 188 188 185 182 187 188 180 180 179 171 169 172 174 171 166 159 150 144 141 136 125 109 98 92 91 87
158 156 155 156 157 157 157 155 153 151 149 144 137 135 134 131 133 136 140 143 145 151 146 143 152 162 169 171 175 181 185 193 193 188 189 189 188 189 186 182 192 196 186 184 184 179 177 178 181 180 171 160 153 147 140 140 141 127 110 107 107 95
155 153 153 153 154 153 152 151 151 150 144 136 131 132 134 130 132 134 131 127 126 130 129 129 142 153 159 163 170 177 187 198 190 182 187 193 193 192 189 184 190 200 200 195 191 191 191 187 188 187 175 160 156 155 147 148 150 143 135 131 131 113
156 154 153 152 153 153 153 154 156 153 144 137 135 137 140 137 137 136 128 122 115 115 119 122 132 141 141 145 157 169 180 187 185 182 184 189 193 194 192 188 191 199 205 207 204 204 200 192 191 197 193 174 165 167 161 155 144 140 151 151 151 145
158 157 156 155 156 156 158 159 160 157 150 146 143 144 146 140 137 133 125 124 119 113 114 117 125 134 135 135 147 159 167 172 176 176 177 183 188 195 195 189 188 195 202 209 213 216 208 198 191 197 209 202 195 195 174 164 148 138 146 150 155 163
160 159 159 159 160 161 162 160 158 156 153 150 145 143 141 133 130 126 123 126 124 122 122 121 127 135 137 136 141 152 160 163 170 169 172 184 187 190 193 187 183 191 202 209 212 218 213 205 199 199 208 210 215 212 180 174 164 151 149 148 158 166
163 162 162 163 163 164 162 158 157 156 155 156 152 144 138 132 129 124 123 125 124 126 130 131 135 143 147 147 148 151 153 152 157 162 165 178 183 183 187 187 189 196 207 211 211 216 215 212 211 210 210 206 204 186 178 179 176 166 156 149 154 158
168 167 165 164 164 163 161 162 166 167 163 163 162 148 139 136 131 126 123 120 119 124 131 136 137 143 152 157 160 162 159 150 148 156 160 169 177 182 186 189 196 202 206 205 205 209 211 217 220 219 213 205 190 170 175 176 174 174 161 150 152 152
172 170 166 166 166 164 166 171 175 172 164 160 159 151 147 149 149 146 133 123 121 121 128 138 138 136 140 152 166 171 170 160 151 153 155 164 179 183 182 181 186 190 189 192 199 201 202 211 219 217 211 203 191 173 174 174 173 177 168 155 155 153
174 171 166 165 164 162 167 175 175 169 159 153 155 156 157 160 161 155 139 129 141 147 141 146 145 142 141 148 173 179 174 166 163 167 164 164 183 192 187 180 179 181 181 185 193 196 196 202 211 211 207 205 202 188 183 182 180 181 176 165 159 153
173 169 164 163 160 160 166 173 172 164 155 148 152 159 159 157 155 151 146 146 171 198 185 162 158 162 162 166 186 187 182 171 168 182 182 170 185 205 201 193 186 188 191 188 185 187 187 189 202 208 205 203 203 199 193 191 187 183 187 189 173 154
171 167 164 163 162 164 169 173 170 162 154 151 155 158 156 154 156 159 166 174 190 207 194 176 182 192 194 195 189 182 181 176 171 179 186 188 206 212 202 198 193 193 196 189 178 175 176 179 190 195 190 185 187 190 190 192 191 185 188 196 178 156
170 168 166 167 168 169 172 175 174 169 162 160 157 153 150 151 157 166 175 181 187 190 179 174 192 201 198 196 190 178 175 180 183 187 195 208 214 196 188 189 188 190 193 189 175 165 166 171 172 169 167 168 172 180 183 188 192 187 180 176 169 160
173 172 170 172 173 174 177 179 181 177 168 162 156 149 146 144 150 164 171 174 180 189 179 143 135 193 186 184 188 187 183 184 185 192 204 209 195 181 180 180 181 186 187 182 171 160 160 164 162 158 157 157 161 171 180 188 191 189 184 170 162 161
179 178 174 174 177 180 184 185 182 175 166 162 158 152 150 148 154 165 170 173 184 198 208 199 350 298 182 182 191 194 191 181 172 175 182 182 176 173 174 175 175 175 170 166 163 159 160 161 158 153 151 152 157 168 181 191 192 193 191 179 169 168
184 182 175 175 180 184 189 186 179 173 166 164 162 159 160 159 161 171 178 185 192 199 213 241 287 279 211 195 200 196 178 172 170 169 164 160 159 160 161 163 165 164 161 160 161 162 163 162 160 154 153 158 165 169 177 185 187 191 190 184 179 175